This is the latest recevied weather packets stored in our database for station/object DL3MEB-6. If no packets are shown the sender has not sent any weather packets the latest 10 day(s).
| Time | Temp. | Humidity | Pressure | Rain* | Wind** | Luminosity | Snow |
|---|---|---|---|---|---|---|---|
| 1778249586 | 22.22° C | 41% | 1014.5 hPa | 0 mm | - | - | - |
| 1778248682 | 21.67° C | 41% | 1014.5 hPa | 0 mm | - | - | - |
| 1778247776 | 20.56° C | 42% | 1014.9 hPa | 0 mm | - | - | - |
| 1778246873 | 20.56° C | 48% | 1014.9 hPa | 0 mm | - | - | - |
| 1778245968 | 21.11° C | 46% | 1015 hPa | 0 mm | - | - | - |
| 1778245057 | 20° C | 46% | 1015.2 hPa | 0 mm | - | - | - |
| 1778244150 | 20° C | 46% | 1015.4 hPa | 0 mm | - | - | - |
| 1778243250 | 19.44° C | 49% | 1015.4 hPa | 0 mm | - | - | - |
| 1778242341 | 20° C | 45% | 1015.2 hPa | 0 mm | - | - | - |
| 1778241432 | 19.44° C | 51% | 1015.5 hPa | 0 mm | - | - | - |
| 1778240532 | 18.33° C | 52% | 1015.5 hPa | 0 mm | - | - | - |
| 1778239627 | 18.89° C | 52% | 1015.5 hPa | 0 mm | - | - | - |
| 1778238717 | 18.33° C | 53% | 1015.5 hPa | 0 mm | - | - | - |
| 1778237813 | 17.78° C | 56% | 1015.9 hPa | 0 mm | - | - | - |
| 1778236909 | 17.22° C | 59% | 1016.1 hPa | 0 mm | - | - | - |
| 1778236001 | 16.67° C | 60% | 1016.2 hPa | 0 mm | - | - | - |
| 1778235094 | 16.11° C | 63% | 1016.2 hPa | 0 mm | - | - | - |
| 1778234188 | 16.11° C | 63% | 1016.2 hPa | 0 mm | - | - | - |
| 1778233286 | 15° C | 65% | 1016.3 hPa | 0 mm | - | - | - |
| 1778232377 | 15° C | 67% | 1016.3 hPa | 0 mm | - | - | - |
| 1778231474 | 14.44° C | 69% | 1016.3 hPa | 0 mm | - | - | - |
| 1778230565 | 13.89° C | 72% | 1016.5 hPa | 0 mm | - | - | - |
| 1778229664 | 13.33° C | 75% | 1016.4 hPa | 0 mm | - | - | - |
| 1778228763 | 12.78° C | 76% | 1016.5 hPa | 0 mm | - | - | - |
| 1778227845 | 12.22° C | 80% | 1016.4 hPa | 0 mm | - | - | - |
* Rain latest hour (hover to see other rain measurements)
** Current wind speed in m/s (hover to see current wind gust speed)